This is the latest recevied weather packets stored in our database for station/object JF7ELG-13. If no packets are shown the sender has not sent any weather packets the latest 10 day(s).
| Time | Temp. | Humidity | Pressure | Rain* | Wind** | Luminosity | Snow |
|---|---|---|---|---|---|---|---|
| 1778139216 | 21.67° C | 81% | 1006.1 hPa | 0 mm | - | - | - |
| 1778138310 | 22.22° C | 79% | 1006.2 hPa | 0 mm | - | - | - |
| 1778137422 | 22.78° C | 77% | 1006.3 hPa | 0 mm | - | - | - |
| 1778136533 | 23.89° C | 69% | 1006.6 hPa | 0 mm | - | - | - |
| 1778135609 | 25° C | 66% | 1006.7 hPa | 0 mm | - | - | - |
| 1778134698 | 24.44° C | 56% | 1006.6 hPa | 0 mm | - | - | - |
| 1778133833 | 24.44° C | 60% | 1006.8 hPa | 0 mm | - | - | - |
| 1778132925 | 24.44° C | 56% | 1006.8 hPa | 0 mm | - | - | - |
| 1778132037 | 24.44° C | 58% | 1007.1 hPa | 0 mm | - | - | - |
| 1778131106 | 23.89° C | 61% | 1007.2 hPa | 0 mm | - | - | - |
| 1778130246 | 23.33° C | 59% | 1007.6 hPa | 0 mm | - | - | - |
| 1778129336 | 23.33° C | 63% | 1008 hPa | 0 mm | - | - | - |
| 1778128436 | 23.33° C | 64% | 1008.1 hPa | 0 mm | - | - | - |
| 1778127509 | 23.33° C | 68% | 1008.2 hPa | 0 mm | - | - | - |
| 1778126628 | 23.89° C | 66% | 1008.4 hPa | 0 mm | - | - | - |
| 1778125712 | 23.89° C | 68% | 1008.3 hPa | 0 mm | - | - | - |
| 1778124811 | 23.89° C | 66% | 1008.7 hPa | 0 mm | - | - | - |
| 1778123935 | 23.89° C | 66% | 1008.8 hPa | 0 mm | - | - | - |
| 1778122997 | 23.89° C | 67% | 1009 hPa | 0 mm | - | - | - |
| 1778122117 | 23.89° C | 64% | 1009 hPa | 0 mm | - | - | - |
| 1778121217 | 23.89° C | 65% | 1009.4 hPa | 0 mm | - | - | - |
| 1778120306 | 23.89° C | 66% | 1009.6 hPa | 0 mm | - | - | - |
| 1778119427 | 23.89° C | 63% | 1009.9 hPa | 0 mm | - | - | - |
| 1778118496 | 22.78° C | 68% | 1010.1 hPa | 0 mm | - | - | - |
| 1778117597 | 21.11° C | 71% | 1010 hPa | 0 mm | - | - | - |
* Rain latest hour (hover to see other rain measurements)
** Current wind speed in m/s (hover to see current wind gust speed)